sat.trackr.live / text

‹ back to catalog

STARLINK-31778

NORAD 59602 · 2024-080B

PAYLOAD ACTIVE UNKNOWN

§ Identity

Operator
Country
US
Launch date
2024-04-28
Launch site
AFETR
Launch vehicle
Mass (kg)
RCS (m²)

Purposes: comms

External: N2YO · Heavens-Above · Gunter

§ Orbital elements

Epoch: 2026-05-24T19:54:11.400768Z

Period
94.27 min
Inclination
43.0029°
Eccentricity
0.0001661
Mean motion
15.27584134 rev/d
Perigee alt
481.9 km
Apogee alt
484.2 km
Semi-major
6,861.2 km
B*
7.3960e-5
RAAN
324.7648°
Arg perigee
272.7744°
Mean anomaly
87.2917°
Rev number
11,621

§ Raw data

STARLINK-317781 59602U 24080B   26144.82929862  .00001774  00000+0  73960-4 0  99962 59602  43.0029 324.7648 0001661 272.7744  87.2917 15.27584134116218

JSON: /api/v1/satellites/59602 · /tle

For live sub-satellite position, see the globe view (requires WebGL).

§ Visibility from observer

Set your observer location to see the next 7 days of passes ≥ 10°. The values pass through the URL so the page stays shareable.

No JS? Fill the form by hand. The geolocation button needs JavaScript.